QPF
0.01 0.00 0.01 0.01 0.01 0.00 0.00 0.01 0.01 0.01 0.02 0.01 0.01 0.02 0.03 0.04 0.06 0.06 0.03 0.02 0.02 0.02 0.02 0.01 0.01 0.00 0.01 0.01 0.00 0.01 0.02 0.04 0.05 0.06 0.05 0.06 0.06 0.05 0.04 0.04 0.03 0.03 0.04 0.04
0.00 0.00 0.00 0.00 0.01 0.01 0.00 0.00 0.00 0.01 0.01 0.01 0.01 0.01 0.03 0.04 0.05 0.06 0.04 0.03 0.03 0.03 0.02 0.02 0.02 0.01 0.01 0.01 0.01 0.01 0.02 0.03 0.04 0.05 0.05 0.05 0.04 0.04 0.04 0.03 0.03 0.03 0.03 0.04
0.01 0.00 0.01 0.01 0.01 0.01 0.01 0.00 0.00 0.01 0.01 0.01 0.01 0.01 0.02 0.03 0.04 0.05 0.06 0.05 0.04 0.03 0.03 0.02 0.01 0.01 0.01 0.02 0.02 0.01 0.01 0.02 0.03 0.05 0.06 0.05 0.04 0.04 0.03 0.03 0.02 0.03 0.03 0.03
0.01 0.02 0.03 0.04 0.02 0.01 0.01 0.01 0.00 0.00 0.00 0.00 0.00 0.00 0.01 0.02 0.06 0.08 0.08 0.06 0.04 0.03 0.02 0.01 0.01 0.01 0.02 0.03 0.03 0.02 0.02 0.02 0.02 0.03 0.03 0.04 0.04 0.04 0.03 0.04 0.03 0.03 0.03 0.04
0.02 0.03 0.05 0.05 0.03 0.01 0.02 0.02 0.00 0.00 0.00 0.00 0.00 0.01 0.01 0.02 0.04 0.06 0.07 0.06 0.04 0.03 0.02 0.01 0.01 0.01 0.02 0.02 0.02 0.02 0.02 0.03 0.03 0.03 0.03 0.03 0.03 0.04 0.05 0.05 0.04 0.04 0.04 0.04
0.02 0.04 0.06 0.06 0.04 0.02 0.02 0.04 0.01 0.00 0.01 0.01 0.01 0.02 0.03 0.02 0.04 0.05 0.06 0.05 0.04 0.02 0.02 0.02 0.02 0.01 0.02 0.01 0.02 0.02 0.02 0.03 0.05 0.05 0.05 0.05 0.04 0.04 0.05 0.05 0.04 0.04 0.03 0.04
0.03 0.05 0.05 0.03 0.03 0.02 0.05 0.06 0.02 0.01 0.01 0.01 0.02 0.03 0.02 0.02 0.03 0.04 0.05 0.04 0.02 0.02 0.02 0.02 0.02 0.01 0.01 0.01 0.02 0.03 0.04 0.05 0.06 0.07 0.08 0.07 0.07 0.06 0.05 0.05 0.04 0.04 0.04 0.04
0.04 0.06 0.07 0.03 0.03 0.05 0.06 0.04 0.02 0.02 0.02 0.02 0.02 0.02 0.02 0.02 0.03 0.05 0.05 0.05 0.03 0.02 0.02 0.02 0.02 0.01 0.01 0.01 0.02 0.04 0.05 0.05 0.06 0.06 0.06 0.07 0.08 0.07 0.06 0.06 0.05 0.05 0.05 0.05
0.04 0.05 0.05 0.05 0.07 0.08 0.05 0.03 0.02 0.02 0.03 0.03 0.03 0.03 0.04 0.04 0.04 0.04 0.04 0.05 0.03 0.02 0.03 0.03 0.02 0.02 0.02 0.02 0.02 0.03 0.04 0.04 0.04 0.04 0.05 0.08 0.08 0.08 0.07 0.06 0.06 0.05 0.05 0.04
0.05 0.07 0.06 0.07 0.09 0.10 0.06 0.03 0.03 0.02 0.02 0.02 0.02 0.02 0.03 0.02 0.02 0.02 0.02 0.03 0.04 0.03 0.03 0.04 0.03 0.02 0.02 0.03 0.02 0.02 0.02 0.02 0.03 0.04 0.05 0.07 0.09 0.09 0.08 0.07 0.07 0.06 0.05 0.05
0.06 0.05 0.05 0.05 0.03 0.02 0.02 0.02 0.02 0.02 0.01 0.01 0.01 0.02 0.03 0.03 0.03 0.02 0.02 0.02 0.04 0.04 0.03 0.04 0.02 0.01 0.02 0.02 0.03 0.03 0.03 0.03 0.04 0.05 0.06 0.06 0.07 0.07 0.07 0.07 0.08 0.08 0.08 0.06
0.05 0.05 0.07 0.06 0.03 0.01 0.01 0.01 0.01 0.02 0.01 0.01 0.01 0.01 0.02 0.02 0.02 0.02 0.02 0.02 0.02 0.02 0.02 0.02 0.02 0.02 0.02 0.02 0.04 0.04 0.04 0.03 0.03 0.04 0.05 0.06 0.06 0.06 0.07 0.08 0.08 0.08 0.08 0.07
0.02 0.02 0.02 0.02 0.02 0.02 0.01 0.00 0.01 0.01 0.01 0.01 0.01 0.01 0.01 0.01 0.01 0.01 0.02 0.01 0.01 0.01 0.01 0.02 0.02 0.02 0.02 0.03 0.04 0.05 0.05 0.05 0.05 0.05 0.05 0.05 0.06 0.05 0.06 0.06 0.06 0.06 0.06 0.07
0.01 0.01 0.02 0.02 0.02 0.02 0.01 0.00 0.00 0.01 0.01 0.01 0.01 0.01 0.01 0.03 0.03 0.03 0.02 0.02 0.01 0.01 0.01 0.02 0.02 0.02 0.02 0.03 0.04 0.04 0.05 0.06 0.06 0.07 0.08 0.06 0.05 0.05 0.05 0.07 0.06 0.05 0.06 0.06
0.00 0.01 0.04 0.03 0.02 0.02 0.01 0.01 0.01 0.01 0.01 0.01 0.02 0.02 0.02 0.04 0.04 0.04 0.03 0.02 0.01 0.01 0.01 0.01 0.02 0.02 0.02 0.03 0.04 0.05 0.06 0.05 0.06 0.06 0.06 0.08 0.07 0.07 0.06 0.04 0.04 0.04 0.06 0.05
0.00 0.01 0.03 0.03 0.03 0.03 0.02 0.01 0.01 0.01 0.01 0.01 0.02 0.02 0.03 0.03 0.04 0.04 0.03 0.02 0.02 0.02 0.01 0.01 0.02 0.02 0.01 0.01 0.02 0.04 0.04 0.03 0.04 0.04 0.03 0.02 0.03 0.05 0.06 0.06 0.04 0.04 0.06 0.07
0.02 0.02 0.02 0.02 0.03 0.03 0.03 0.02 0.01 0.01 0.01 0.01 0.02 0.02 0.02 0.03 0.04 0.03 0.02 0.02 0.02 0.02 0.02 0.02 0.02 0.01 0.01 0.01 0.01 0.02 0.02 0.01 0.01 0.02 0.02 0.02 0.01 0.02 0.02 0.02 0.03 0.04 0.05 0.07
0.01 0.02 0.02 0.02 0.02 0.02 0.03 0.02 0.01 0.01 0.02 0.04 0.02 0.01 0.01 0.02 0.02 0.03 0.02 0.02 0.03 0.04 0.03 0.03 0.02 0.02 0.02 0.01 0.01 0.01 0.01 0.01 0.01 0.01 0.01 0.01 0.02 0.02 0.02 0.02 0.02 0.03 0.03 0.06
0.01 0.01 0.01 0.01 0.01 0.01 0.02 0.02 0.02 0.01 0.02 0.02 0.01 0.01 0.01 0.01 0.02 0.02 0.03 0.03 0.03 0.03 0.03 0.02 0.02 0.02 0.02 0.01 0.01 0.01 0.01 0.01 0.01 0.01 0.01 0.01 0.01 0.02 0.02 0.03 0.03 0.03 0.04 0.05
0.01 0.01 0.01 0.01 0.02 0.02 0.02 0.01 0.01 0.01 0.00 0.01 0.01 0.01 0.01 0.01 0.01 0.02 0.02 0.03 0.03 0.03 0.02 0.02 0.02 0.02 0.02 0.01 0.01 0.01 0.00 0.01 0.01 0.01 0.01 0.00 0.01 0.01 0.01 0.02 0.03 0.03 0.04 0.05
0.01 0.01 0.02 0.01 0.02 0.02 0.01 0.01 0.01 0.01 0.01 0.01 0.01 0.01 0.01 0.02 0.02 0.02 0.02 0.03 0.02 0.02 0.02 0.03 0.03 0.03 0.03 0.02 0.01 0.01 0.01 0.01 0.01 0.01 0.01 0.01 0.01 0.00 0.01 0.01 0.02 0.03 0.04 0.04
0.02 0.01 0.01 0.01 0.02 0.02 0.02 0.01 0.02 0.02 0.02 0.02 0.02 0.02 0.02 0.03 0.03 0.02 0.02 0.02 0.02 0.02 0.02 0.02 0.02 0.02 0.01 0.01 0.01 0.01 0.01 0.01 0.01 0.01 0.01 0.01 0.01 0.01 0.01 0.00 0.01 0.02 0.03 0.03
0.02 0.01 0.01 0.02 0.02 0.03 0.02 0.02 0.02 0.01 0.02 0.02 0.02 0.02 0.01 0.02 0.02 0.02 0.02 0.02 0.01 0.01 0.01 0.01 0.01 0.01 0.01 0.01 0.00 0.00 0.00 0.00 0.00 0.00 0.00 0.00 0.01 0.01 0.01 0.01 0.01 0.01 0.02 0.03
0.02 0.01 0.01 0.01 0.02 0.02 0.03 0.03 0.03 0.03 0.03 0.03 0.02 0.01 0.01 0.01 0.01 0.01 0.01 0.01 0.01 0.01 0.00 0.01 0.00 0.00 0.00 0.00 0.01 0.01 0.00 0.00 0.00 0.00 0.00 0.00 0.01 0.01 0.01 0.01 0.01 0.02 0.03 0.04
0.02 0.03 0.03 0.03 0.04 0.04 0.03 0.02 0.03 0.03 0.03 0.03 0.03 0.03 0.02 0.01 0.01 0.01 0.01 0.01 0.01 0.01 0.00 0.00 0.01 0.00 0.00 0.00 0.00 0.00 0.01 0.01 0.01 0.01 0.01 0.00 0.01 0.01 0.01 0.01 0.01 0.01 0.02 0.02
0.05 0.06 0.08 0.06 0.04 0.04 0.03 0.02 0.04 0.05 0.03 0.04 0.05 0.05 0.03 0.02 0.01 0.01 0.01 0.01 0.01 0.01 0.01 0.01 0.01 0.01 0.00 0.00 0.00 0.00 0.00 0.01 0.01 0.01 0.02 0.02 0.01 0.01 0.01 0.01 0.01 0.02 0.02 0.02
0.06 0.08 0.09 0.07 0.05 0.03 0.03 0.03 0.04 0.04 0.04 0.04 0.04 0.04 0.03 0.03 0.02 0.02 0.02 0.02 0.02 0.02 0.02 0.01 0.01 0.01 0.00 0.00 0.00 0.00 0.01 0.01 0.01 0.01 0.02 0.04 0.04 0.03 0.02 0.02 0.02 0.03 0.03 0.02
MSLP
1009.85 1009.14 1008.31 1007.46 1006.68 1006.06 1005.65 1005.45 1005.44 1005.55 1005.71 1005.85 1005.88 1005.79 1005.56 1005.21 1004.80 1004.38 1004.00 1003.73 1003.58 1003.57 1003.69 1003.91 1004.21 1004.55 1004.91 1005.29 1005.69 1006.10 1006.56 1007.06 1007.63 1008.25 1008.92 1009.62 1010.33 1011.03 1011.68 1012.29 1012.83 1013.30 1013.70 1014.05
1010.27 1009.56 1008.69 1007.75 1006.84 1006.07 1005.51 1005.18 1005.07 1005.16 1005.35 1005.59 1005.79 1005.89 1005.86 1005.71 1005.44 1005.11 1004.76 1004.43 1004.18 1004.01 1003.95 1003.98 1004.10 1004.29 1004.53 1004.83 1005.17 1005.58 1006.05 1006.59 1007.19 1007.86 1008.58 1009.32 1010.05 1010.75 1011.41 1011.99 1012.51 1012.94 1013.32 1013.64
1010.47 1009.83 1009.00 1008.07 1007.15 1006.33 1005.70 1005.30 1005.14 1005.20 1005.41 1005.71 1006.01 1006.24 1006.36 1006.34 1006.18 1005.90 1005.55 1005.18 1004.82 1004.50 1004.26 1004.10 1004.04 1004.06 1004.16 1004.36 1004.64 1005.02 1005.49 1006.05 1006.69 1007.41 1008.17 1008.95 1009.72 1010.44 1011.11 1011.69 1012.19 1012.61 1012.96 1013.26
1010.52 1010.01 1009.30 1008.47 1007.63 1006.85 1006.24 1005.83 1005.66 1005.70 1005.91 1006.22 1006.56 1006.85 1007.03 1007.07 1006.96 1006.71 1006.35 1005.91 1005.45 1005.01 1004.61 1004.28 1004.04 1003.90 1003.87 1003.95 1004.15 1004.47 1004.91 1005.47 1006.13 1006.87 1007.67 1008.48 1009.28 1010.03 1010.71 1011.30 1011.80 1012.21 1012.56 1012.86
1010.51 1010.15 1009.60 1008.94 1008.24 1007.59 1007.05 1006.69 1006.52 1006.54 1006.72 1007.00 1007.31 1007.58 1007.75 1007.79 1007.68 1007.42 1007.03 1006.55 1006.02 1005.47 1004.95 1004.49 1004.10 1003.82 1003.66 1003.62 1003.73 1003.97 1004.36 1004.88 1005.52 1006.25 1007.05 1007.87 1008.68 1009.44 1010.13 1010.74 1011.25 1011.67 1012.03 1012.34
1010.49 1010.27 1009.90 1009.43 1008.91 1008.40 1007.97 1007.67 1007.52 1007.51 1007.63 1007.83 1008.06 1008.25 1008.37 1008.36 1008.21 1007.92 1007.51 1007.00 1006.42 1005.82 1005.23 1004.68 1004.20 1003.81 1003.53 1003.39 1003.39 1003.54 1003.84 1004.28 1004.86 1005.54 1006.30 1007.10 1007.89 1008.65 1009.34 1009.95 1010.48 1010.93 1011.31 1011.65
1010.47 1010.37 1010.16 1009.86 1009.50 1009.15 1008.82 1008.58 1008.42 1008.37 1008.41 1008.50 1008.60 1008.68 1008.69 1008.61 1008.41 1008.10 1007.68 1007.17 1006.60 1006.00 1005.40 1004.82 1004.29 1003.84 1003.49 1003.25 1003.14 1003.18 1003.37 1003.71 1004.19 1004.77 1005.45 1006.18 1006.92 1007.65 1008.33 1008.94 1009.48 1009.96 1010.38 1010.76
1010.44 1010.41 1010.30 1010.13 1009.91 1009.67 1009.42 1009.21 1009.04 1008.92 1008.85 1008.81 1008.78 1008.73 1008.63 1008.46 1008.22 1007.91 1007.51 1007.05 1006.54 1006.00 1005.44 1004.90 1004.38 1003.91 1003.51 1003.20 1003.00 1002.93 1002.99 1003.19 1003.53 1003.99 1004.55 1005.18 1005.84 1006.51 1007.15 1007.75 1008.30 1008.80 1009.27 1009.72
1010.37 1010.34 1010.29 1010.19 1010.05 1009.87 1009.67 1009.45 1009.25 1009.05 1008.86 1008.69 1008.52 1008.34 1008.15 1007.93 1007.67 1007.37 1007.04 1006.67 1006.26 1005.83 1005.38 1004.92 1004.46 1004.01 1003.60 1003.24 1002.97 1002.79 1002.72 1002.78 1002.97 1003.28 1003.69 1004.19 1004.75 1005.33 1005.92 1006.49 1007.04 1007.57 1008.08 1008.58
1010.21 1010.15 1010.10 1010.01 1009.90 1009.73 1009.53 1009.28 1009.01 1008.73 1008.44 1008.15 1007.87 1007.60 1007.34 1007.10 1006.86 1006.62 1006.38 1006.14 1005.88 1005.59 1005.28 1004.94 1004.56 1004.17 1003.78 1003.40 1003.06 1002.79 1002.60 1002.52 1002.56 1002.71 1002.98 1003.34 1003.77 1004.26 1004.78 1005.31 1005.85 1006.38 1006.92 1007.48
1009.96 1009.85 1009.74 1009.63 1009.49 1009.30 1009.05 1008.76 1008.42 1008.06 1007.68 1007.31 1006.96 1006.64 1006.37 1006.14 1005.96 1005.82 1005.71 1005.61 1005.51 1005.39 1005.22 1005.01 1004.74 1004.42 1004.06 1003.67 1003.29 1002.95 1002.66 1002.46 1002.36 1002.38 1002.50 1002.73 1003.04 1003.43 1003.87 1004.34 1004.85 1005.38 1005.93 1006.50
1009.65 1009.47 1009.30 1009.13 1008.92 1008.67 1008.37 1008.02 1007.62 1007.20 1006.77 1006.36 1005.99 1005.68 1005.44 1005.28 1005.19 1005.17 1005.19 1005.25 1005.30 1005.33 1005.30 1005.20 1005.03 1004.77 1004.44 1004.07 1003.66 1003.27 1002.91 1002.62 1002.41 1002.31 1002.31 1002.43 1002.63 1002.92 1003.28 1003.69 1004.15 1004.65 1005.18 1005.75
1009.34 1009.09 1008.85 1008.61 1008.33 1008.01 1007.65 1007.24 1006.80 1006.35 1005.91 1005.51 1005.17 1004.91 1004.74 1004.67 1004.70 1004.80 1004.96 1005.15 1005.33 1005.47 1005.55 1005.54 1005.43 1005.22 1004.92 1004.55 1004.13 1003.71 1003.30 1002.95 1002.68 1002.50 1002.42 1002.44 1002.56 1002.77 1003.05 1003.39 1003.79 1004.23 1004.72 1005.26
1009.09 1008.80 1008.49 1008.18 1007.83 1007.44 1007.02 1006.57 1006.11 1005.67 1005.25 1004.90 1004.63 1004.46 1004.40 1004.45 1004.59 1004.82 1005.09 1005.37 1005.64 1005.85 1005.99 1006.02 1005.93 1005.74 1005.45 1005.08 1004.66 1004.22 1003.80 1003.42 1003.12 1002.89 1002.76 1002.73 1002.79 1002.92 1003.13 1003.41 1003.73 1004.11 1004.53 1005.00
1008.97 1008.65 1008.30 1007.92 1007.51 1007.07 1006.60 1006.13 1005.68 1005.26 1004.90 1004.62 1004.46 1004.40 1004.46 1004.63 1004.89 1005.21 1005.56 1005.90 1006.21 1006.44 1006.57 1006.60 1006.50 1006.29 1005.99 1005.61 1005.19 1004.75 1004.33 1003.96 1003.65 1003.42 1003.27 1003.21 1003.22 1003.31 1003.46 1003.66 1003.92 1004.21 1004.55 1004.93
1009.01 1008.68 1008.30 1007.88 1007.42 1006.94 1006.45 1005.97 1005.53 1005.16 1004.88 1004.71 1004.65 1004.72 1004.91 1005.18 1005.54 1005.92 1006.32 1006.68 1006.97 1007.18 1007.27 1007.24 1007.10 1006.85 1006.51 1006.11 1005.69 1005.26 1004.86 1004.51 1004.22 1004.00 1003.86 1003.79 1003.78 1003.83 1003.93 1004.07 1004.25 1004.46 1004.71 1004.99
1009.20 1008.87 1008.49 1008.04 1007.55 1007.05 1006.55 1006.08 1005.68 1005.38 1005.18 1005.11 1005.17 1005.36 1005.65 1006.02 1006.44 1006.87 1007.28 1007.62 1007.87 1008.01 1008.02 1007.92 1007.70 1007.39 1007.02 1006.60 1006.17 1005.75 1005.38 1005.06 1004.80 1004.60 1004.48 1004.41 1004.39 1004.41 1004.47 1004.55 1004.66 1004.79 1004.95 1005.14
1009.49 1009.19 1008.81 1008.36 1007.87 1007.36 1006.87 1006.43 1006.08 1005.84 1005.73 1005.77 1005.93 1006.22 1006.61 1007.05 1007.51 1007.96 1008.35 1008.65 1008.83 1008.89 1008.82 1008.63 1008.34 1007.96 1007.54 1007.10 1006.67 1006.26 1005.91 1005.62 1005.39 1005.22 1005.11 1005.05 1005.02 1005.01 1005.03 1005.06 1005.11 1005.17 1005.25 1005.35
1009.81 1009.56 1009.21 1008.78 1008.30 1007.81 1007.35 1006.95 1006.66 1006.49 1006.47 1006.59 1006.85 1007.23 1007.68 1008.17 1008.66 1009.10 1009.46 1009.71 1009.83 1009.81 1009.66 1009.39 1009.03 1008.61 1008.15 1007.69 1007.26 1006.87 1006.53 1006.26 1006.06 1005.90 1005.80 1005.73 1005.68 1005.65 1005.62 1005.61 1005.60 1005.60 1005.61 1005.64
1010.10 1009.90 1009.59 1009.20 1008.77 1008.32 1007.91 1007.57 1007.35 1007.25 1007.31 1007.51 1007.85 1008.29 1008.79 1009.31 1009.81 1010.24 1010.58 1010.78 1010.85 1010.77 1010.56 1010.24 1009.84 1009.39 1008.92 1008.46 1008.03 1007.65 1007.33 1007.07 1006.86 1006.71 1006.59 1006.50 1006.43 1006.36 1006.30 1006.24 1006.18 1006.13 1006.09 1006.06
1010.28 1010.14 1009.90 1009.58 1009.21 1008.82 1008.48 1008.22 1008.07 1008.05 1008.18 1008.45 1008.85 1009.34 1009.88 1010.42 1010.92 1011.35 1011.67 1011.84 1011.88 1011.77 1011.54 1011.21 1010.80 1010.35 1009.89 1009.43 1009.02 1008.65 1008.34 1008.08 1007.86 1007.69 1007.55 1007.43 1007.31 1007.21 1007.10 1007.00 1006.90 1006.81 1006.73 1006.65
1010.32 1010.26 1010.10 1009.85 1009.56 1009.27 1009.01 1008.84 1008.77 1008.83 1009.03 1009.36 1009.81 1010.34 1010.90 1011.46 1011.97 1012.39 1012.70 1012.87 1012.91 1012.81 1012.59 1012.28 1011.90 1011.48 1011.04 1010.63 1010.23 1009.88 1009.57 1009.31 1009.07 1008.87 1008.69 1008.52 1008.37 1008.21 1008.07 1007.92 1007.79 1007.67 1007.55 1007.45
1010.22 1010.24 1010.16 1010.01 1009.82 1009.62 1009.46 1009.37 1009.39 1009.53 1009.80 1010.19 1010.68 1011.23 1011.81 1012.38 1012.89 1013.32 1013.64 1013.83 1013.89 1013.83 1013.66 1013.40 1013.08 1012.72 1012.34 1011.97 1011.61 1011.28 1010.98 1010.70 1010.45 1010.21 1009.99 1009.77 1009.57 1009.37 1009.18 1009.01 1008.85 1008.70 1008.56 1008.43
1010.01 1010.10 1010.10 1010.04 1009.95 1009.85 1009.79 1009.80 1009.91 1010.12 1010.45 1010.88 1011.40 1011.98 1012.57 1013.14 1013.67 1014.11 1014.45 1014.67 1014.78 1014.77 1014.67 1014.49 1014.24 1013.96 1013.66 1013.35 1013.05 1012.74 1012.45 1012.17 1011.90 1011.63 1011.36 1011.11 1010.86 1010.62 1010.40 1010.20 1010.02 1009.85 1009.69 1009.54
1009.72 1009.87 1009.95 1009.97 1009.97 1009.96 1010.00 1010.10 1010.28 1010.57 1010.95 1011.42 1011.96 1012.55 1013.15 1013.73 1014.26 1014.71 1015.08 1015.34 1015.50 1015.56 1015.54 1015.44 1015.30 1015.11 1014.89 1014.65 1014.40 1014.14 1013.87 1013.59 1013.30 1013.00 1012.71 1012.42 1012.14 1011.88 1011.64 1011.42 1011.22 1011.04 1010.87 1010.70
1009.40 1009.59 1009.73 1009.82 1009.89 1009.97 1010.08 1010.26 1010.52 1010.86 1011.29 1011.79 1012.35 1012.94 1013.54 1014.12 1014.65 1015.11 1015.50 1015.80 1016.01 1016.14 1016.20 1016.20 1016.14 1016.05 1015.91 1015.75 1015.56 1015.34 1015.10 1014.83 1014.54 1014.24 1013.93 1013.62 1013.33 1013.05 1012.79 1012.56 1012.36 1012.17 1011.99 1011.79
1009.10 1009.31 1009.48 1009.61 1009.74 1009.89 1010.07 1010.31 1010.63 1011.02 1011.48 1012.00 1012.57 1013.17 1013.76 1014.33 1014.86 1015.33 1015.73 1016.05 1016.31 1016.50 1016.63 1016.71 1016.74 1016.73 1016.67 1016.58 1016.45 1016.29 1016.08 1015.83 1015.56 1015.26 1014.95 1014.64 1014.33 1014.05 1013.79 1013.56 1013.35 1013.15 1012.96 1012.75
Thickness
5728 5735 5736 5730 5728 5732 5731 5727 5718 5719 5720 5721 5723 5723 5721 5718 5713 5709 5706 5704 5701 5697 5695 5694 5691 5689 5688 5687 5689 5689 5689 5688 5689 5690 5690 5690 5689 5689 5690 5690 5690 5689 5688 5688
5716 5728 5731 5726 5727 5726 5727 5727 5723 5721 5717 5725 5726 5721 5714 5709 5706 5700 5697 5695 5694 5690 5687 5686 5684 5682 5681 5681 5682 5682 5682 5682 5683 5684 5685 5685 5685 5684 5684 5684 5684 5684 5683 5683
5701 5718 5719 5709 5719 5722 5721 5721 5717 5707 5710 5717 5711 5707 5703 5700 5697 5694 5690 5688 5685 5683 5680 5679 5678 5677 5675 5676 5676 5675 5676 5677 5678 5678 5679 5680 5681 5680 5679 5679 5679 5678 5677 5677
5696 5698 5682 5704 5726 5724 5715 5712 5714 5709 5708 5707 5703 5701 5699 5694 5689 5687 5685 5681 5678 5676 5675 5673 5672 5672 5670 5670 5670 5669 5670 5671 5673 5673 5674 5675 5675 5675 5674 5674 5673 5673 5672 5672
5687 5683 5687 5701 5712 5711 5702 5695 5706 5702 5699 5699 5699 5693 5688 5688 5684 5680 5678 5675 5673 5671 5669 5667 5665 5665 5664 5663 5663 5662 5663 5665 5666 5668 5669 5670 5669 5670 5670 5669 5668 5668 5668 5667
5680 5672 5668 5686 5705 5711 5698 5681 5696 5696 5691 5689 5686 5674 5673 5679 5677 5675 5672 5670 5668 5666 5664 5661 5659 5659 5656 5655 5656 5656 5658 5660 5661 5663 5664 5665 5665 5666 5666 5665 5664 5664 5664 5663
5672 5667 5672 5690 5700 5699 5671 5669 5685 5686 5682 5678 5673 5669 5671 5671 5668 5667 5664 5663 5661 5659 5656 5654 5653 5651 5648 5648 5648 5651 5653 5655 5656 5658 5659 5661 5662 5662 5661 5661 5660 5659 5658 5657
5667 5659 5659 5684 5686 5674 5669 5677 5678 5676 5673 5669 5666 5665 5664 5662 5659 5658 5657 5655 5655 5652 5649 5647 5646 5644 5641 5641 5643 5645 5647 5649 5651 5653 5655 5658 5656 5656 5656 5656 5654 5653 5653 5652
5665 5662 5671 5677 5672 5672 5674 5670 5669 5667 5667 5663 5659 5657 5655 5653 5651 5650 5650 5649 5648 5645 5642 5640 5640 5638 5635 5636 5638 5639 5641 5643 5645 5647 5649 5651 5651 5651 5651 5650 5649 5649 5648 5647
5664 5666 5670 5671 5670 5669 5668 5665 5665 5664 5662 5659 5654 5651 5649 5646 5644 5643 5643 5642 5641 5638 5635 5634 5634 5634 5633 5633 5634 5635 5635 5637 5640 5642 5644 5645 5646 5646 5645 5644 5643 5643 5642 5642
5657 5660 5660 5662 5662 5662 5662 5662 5659 5658 5657 5653 5649 5645 5643 5641 5639 5638 5637 5637 5635 5633 5630 5629 5630 5629 5629 5630 5630 5630 5631 5633 5636 5638 5639 5639 5640 5640 5640 5638 5638 5637 5637 5637
5645 5651 5648 5649 5654 5656 5653 5652 5651 5649 5647 5647 5644 5640 5637 5635 5635 5634 5632 5631 5629 5628 5626 5626 5625 5624 5625 5625 5626 5626 5627 5629 5631 5633 5633 5634 5634 5634 5633 5633 5631 5631 5630 5629
5649 5650 5647 5647 5649 5648 5645 5645 5645 5643 5640 5638 5637 5635 5632 5631 5630 5629 5627 5626 5624 5623 5622 5622 5621 5620 5620 5621 5621 5622 5623 5624 5626 5628 5629 5630 5630 5629 5628 5626 5624 5623 5623 5622
5646 5643 5638 5638 5638 5639 5640 5640 5639 5637 5635 5633 5631 5629 5627 5625 5623 5621 5620 5620 5620 5619 5618 5617 5616 5616 5617 5617 5617 5617 5618 5619 5620 5622 5624 5625 5625 5625 5624 5623 5621 5620 5617 5615
5636 5635 5633 5633 5634 5633 5634 5633 5630 5629 5628 5627 5625 5622 5620 5617 5615 5614 5614 5615 5614 5612 5612 5611 5610 5610 5612 5612 5612 5612 5613 5614 5615 5618 5619 5620 5620 5620 5620 5619 5618 5617 5615 5611
5627 5627 5625 5624 5624 5625 5625 5624 5622 5621 5621 5621 5619 5616 5613 5611 5610 5609 5609 5608 5606 5605 5604 5604 5604 5605 5606 5607 5606 5607 5607 5607 5608 5611 5613 5614 5615 5615 5614 5613 5613 5612 5610 5607
5616 5615 5615 5614 5616 5618 5617 5616 5615 5614 5614 5613 5610 5609 5607 5605 5604 5603 5602 5602 5600 5599 5598 5598 5598 5599 5600 5601 5601 5602 5604 5604 5602 5604 5605 5607 5608 5607 5607 5607 5606 5606 5605 5603
5612 5611 5611 5610 5610 5610 5610 5610 5608 5607 5607 5606 5605 5603 5600 5597 5595 5596 5595 5595 5593 5592 5591 5592 5592 5593 5594 5595 5595 5596 5597 5598 5599 5598 5599 5599 5600 5600 5600 5600 5600 5600 5598 5596
5607 5607 5606 5606 5606 5605 5604 5603 5603 5602 5601 5599 5597 5594 5592 5591 5589 5589 5589 5587 5586 5584 5585 5587 5585 5586 5588 5588 5587 5589 5590 5591 5592 5593 5593 5592 5593 5594 5594 5593 5593 5593 5591 5589
5603 5602 5602 5602 5602 5600 5598 5598 5597 5596 5595 5593 5591 5588 5586 5584 5583 5582 5580 5579 5579 5580 5580 5580 5580 5580 5581 5581 5580 5583 5584 5584 5585 5586 5587 5587 5586 5587 5587 5586 5586 5584 5582 5581
5597 5597 5596 5596 5595 5595 5594 5594 5592 5590 5589 5588 5585 5582 5580 5579 5578 5576 5574 5572 5573 5574 5574 5572 5573 5573 5575 5573 5573 5576 5577 5578 5579 5580 5580 5580 5580 5579 5579 5579 5578 5576 5575 5573
5591 5590 5590 5591 5590 5588 5588 5588 5587 5585 5584 5582 5580 5578 5575 5572 5572 5570 5569 5568 5568 5565 5567 5567 5567 5566 5566 5566 5570 5571 5571 5572 5572 5573 5573 5573 5572 5572 5571 5571 5570 5569 5568 5566
5585 5584 5585 5584 5584 5583 5583 5582 5582 5580 5578 5577 5574 5572 5570 5568 5568 5566 5563 5563 5563 5560 5561 5561 5559 5558 5557 5560 5563 5564 5564 5565 5565 5566 5566 5565 5565 5564 5564 5563 5562 5561 5561 5559
5580 5580 5579 5579 5579 5577 5575 5576 5576 5575 5574 5573 5571 5569 5567 5564 5563 5562 5561 5558 5557 5555 5556 5555 5553 5552 5550 5554 5555 5556 5557 5557 5557 5558 5558 5558 5558 5557 5557 5556 5555 5555 5554 5552
5576 5575 5575 5574 5573 5573 5572 5572 5572 5571 5570 5569 5568 5566 5565 5563 5560 5559 5557 5555 5552 5551 5551 5550 5547 5546 5547 5549 5549 5549 5549 5549 5549 5550 5549 5550 5550 5550 5549 5549 5548 5547 5547 5546
5571 5571 5571 5571 5571 5571 5571 5571 5570 5568 5567 5566 5565 5563 5561 5560 5558 5555 5553 5551 5549 5546 5547 5546 5544 5541 5543 5543 5543 5542 5541 5541 5541 5542 5542 5542 5542 5542 5541 5540 5540 5539 5539 5538
5569 5568 5567 5568 5570 5570 5570 5569 5567 5566 5565 5563 5561 5560 5558 5557 5554 5552 5549 5548 5546 5544 5543 5542 5541 5539 5538 5537 5536 5535 5535 5535 5535 5535 5535 5535 5535 5534 5534 5532 5532 5530 5530 5530